CAPE
0 0 0 0 0 0 0 0 0 0 0 0 0 0 0 0 0 0 0 0 0 0 0 0 0 0 0 0 0 0 0 0 0 0 0 0 0 0 0 0 0 0 0 0
0 0 0 0 0 0 0 0 0 0 0 0 0 0 0 0 0 0 0 0 0 0 0 0 0 0 0 0 0 0 0 0 0 0 0 0 0 0 0 0 0 0 0 0
0 0 0 0 0 0 0 0 0 0 0 0 0 0 0 0 0 0 0 0 0 0 0 0 0 0 0 0 0 0 0 0 0 0 0 0 0 0 0 0 0 0 0 0
0 0 0 0 0 0 0 0 0 0 0 0 0 0 0 0 0 0 0 0 0 0 0 0 0 0 0 0 0 0 0 0 0 0 0 0 0 0 0 0 0 0 0 0
0 0 0 0 0 0 0 0 0 0 0 0 0 0 0 0 0 0 0 0 0 0 0 0 0 0 0 0 0 0 0 0 0 0 0 0 0 0 0 0 0 0 0 0
0 0 0 0 0 0 0 0 0 0 0 0 0 0 0 0 0 0 0 0 0 0 0 0 0 0 0 0 0 0 0 0 0 0 0 0 0 0 0 0 0 0 0 0
0 0 0 0 0 0 0 0 0 0 0 0 0 0 0 0 0 0 0 0 0 0 0 0 0 0 0 0 0 0 0 0 0 0 0 0 0 0 0 0 0 0 0 0
0 0 0 0 0 0 0 0 0 0 0 0 0 0 0 0 0 0 0 0 0 0 0 0 0 0 0 0 0 0 0 0 0 0 0 0 0 0 0 0 0 0 0 0
0 0 0 0 0 0 0 0 0 0 0 0 0 0 0 0 0 0 0 0 0 0 0 0 0 0 0 0 0 0 0 0 0 0 0 0 0 0 0 0 0 0 0 0
0 0 0 0 0 0 0 0 0 0 0 0 0 0 0 0 0 0 0 0 0 0 0 0 0 0 0 0 0 0 0 0 0 0 0 0 0 0 0 0 0 0 0 0
0 0 0 0 0 0 0 0 0 0 0 0 0 0 0 0 0 0 0 0 0 0 0 0 0 0 0 0 0 0 0 0 0 0 0 0 0 0 0 0 0 0 0 0
0 0 0 0 0 0 0 0 0 0 0 0 0 0 0 0 0 0 0 0 0 0 0 0 0 0 0 0 0 0 0 0 0 0 0 0 0 0 0 0 0 0 0 0
0 0 0 0 0 0 0 0 0 0 0 0 0 0 0 0 0 0 0 0 0 0 0 0 0 0 0 0 0 0 0 0 0 0 0 0 0 0 0 0 0 0 0 0
0 0 0 0 0 0 0 0 0 0 0 0 0 0 0 0 0 0 0 0 0 0 0 0 0 0 0 0 0 0 0 0 0 0 0 0 0 0 0 0 0 0 0 0
0 0 0 0 0 0 0 0 0 0 0 0 0 0 0 0 0 0 0 0 0 0 0 0 0 0 0 0 0 0 0 0 0 0 0 0 0 0 0 0 0 0 0 0
0 0 0 0 0 0 0 0 0 0 0 0 0 0 0 0 0 0 0 0 0 0 0 0 0 0 0 0 0 0 0 0 0 0 0 0 0 0 0 0 0 0 0 0
3 0 0 0 0 0 0 0 0 0 0 0 0 0 0 0 0 0 0 0 0 0 0 0 0 0 0 0 0 0 0 0 0 0 0 0 0 0 0 0 0 0 0 0
0 0 1 0 0 0 0 0 0 0 0 0 0 0 0 0 0 0 0 0 0 0 0 0 0 0 0 0 0 0 0 0 0 0 0 0 0 0 0 0 0 0 0 0
12 1 0 2 1 0 0 0 0 0 0 0 0 0 0 0 0 0 0 0 0 0 0 0 0 0 0 0 0 0 0 0 0 0 0 0 0 0 0 0 0 0 0 0
0 4 0 0 0 0 0 0 0 0 0 0 0 0 0 0 0 0 0 0 0 0 0 0 0 0 0 0 0 0 0 0 0 0 0 0 0 0 0 0 0 0 0 0
0 3 1 1 4 1 0 0 0 0 0 0 0 0 0 0 0 0 0 0 0 0 0 0 0 0 0 0 0 0 0 0 0 0 0 0 0 0 0 0 0 0 0 0
8 1 0 0 6 16 0 0 0 0 0 0 0 0 0 0 0 0 0 0 0 0 0 0 0 0 0 0 0 0 0 0 0 0 0 0 0 0 0 0 0 0 0 0
16 27 14 9 10 0 0 0 0 0 0 0 0 0 0 0 0 0 0 0 0 0 0 0 0 0 0 0 0 0 0 0 0 0 0 0 0 0 0 0 0 0 0 0
0 1 27 5 0 0 0 0 0 0 0 0 0 0 0 0 0 0 0 0 0 0 0 0 0 0 0 0 0 0 0 0 0 0 0 0 0 0 0 0 0 0 0 0
0 0 0 0 0 0 0 0 0 0 0 0 0 0 0 0 0 0 0 0 0 0 0 0 0 0 0 0 0 0 0 0 0 0 0 0 0 1 1 0 0 0 0 0
0 0 0 0 0 0 0 0 0 0 0 0 0 0 0 0 0 0 0 0 0 0 0 0 0 0 0 0 0 0 0 0 0 0 0 0 0 0 0 0 0 0 0 0
CIN
0 0 0 0 0 0 0 0 0 0 0 0 0 0 0 0 0 0 0 0 0 0 0 0 0 0 0 0 0 0 0 0 0 0 0 0 0 0 0 0 0 0 0 0
0 0 0 0 0 0 0 0 0 0 0 0 0 0 0 0 0 0 0 0 0 0 0 0 0 0 0 0 0 0 0 0 0 0 0 0 0 0 0 0 0 0 0 0
0 0 0 0 0 0 0 0 0 0 0 0 0 0 0 0 0 0 0 0 0 0 0 0 0 0 0 0 0 0 0 0 0 0 0 0 0 0 0 0 0 0 0 0
0 0 0 0 0 0 0 0 0 0 0 0 0 0 0 0 0 0 0 0 0 0 0 0 0 0 0 0 0 0 0 0 0 0 0 0 0 0 0 0 0 0 0 0
0 0 0 0 0 0 0 0 0 0 0 0 0 0 0 0 0 0 0 0 0 0 0 0 0 0 0 0 0 0 0 0 0 0 0 0 0 0 0 0 0 0 0 0
0 0 0 0 0 0 0 0 0 0 0 0 0 0 0 0 0 0 0 0 0 0 0 0 0 0 0 0 0 0 0 0 0 0 0 0 0 0 0 0 0 0 0 0
0 0 0 0 0 0 0 0 0 0 0 0 0 0 0 0 0 0 0 0 0 0 0 0 0 0 0 0 0 0 0 0 0 0 0 0 0 0 0 0 0 0 0 0
0 0 0 0 0 0 0 0 0 0 0 0 0 0 0 0 0 0 0 0 0 0 0 0 0 0 0 0 0 0 0 0 0 0 0 0 0 0 0 0 0 0 0 0
0 0 0 0 0 0 0 0 0 0 0 0 0 0 0 0 0 0 0 0 0 0 0 0 0 0 0 0 0 0 0 0 0 0 0 0 0 0 0 0 0 0 0 0
0 0 0 0 0 0 0 0 0 0 0 0 0 0 0 0 0 0 0 0 0 0 0 0 0 0 0 0 0 0 0 0 0 0 0 0 0 0 0 0 0 0 0 0
0 0 0 0 0 0 0 0 0 0 0 0 0 0 0 0 0 0 0 0 0 0 0 0 0 0 0 0 0 0 0 0 0 0 0 0 0 0 0 0 0 0 0 0
0 0 0 0 0 0 0 0 0 0 0 0 0 0 0 0 0 0 0 0 0 0 0 0 0 0 0 0 0 0 0 0 0 0 0 0 0 0 0 0 0 0 0 0
0 0 0 0 0 0 0 0 0 0 0 0 0 0 0 0 0 0 0 0 0 0 0 0 0 0 0 0 0 0 0 0 0 0 0 0 0 0 0 0 0 0 0 0
0 0 0 0 0 0 0 0 0 0 0 0 0 0 0 0 0 0 0 0 0 0 0 0 0 0 0 0 0 0 0 0 0 0 0 0 0 0 0 0 0 0 0 0
0 0 0 0 0 0 0 0 0 0 0 0 0 0 0 0 0 0 0 0 0 0 0 0 0 0 0 0 0 0 0 0 0 0 0 0 0 0 0 0 0 0 0 0
-1 0 0 0 0 0 0 0 0 0 0 0 0 0 0 0 0 0 0 0 0 0 0 0 0 0 0 0 0 0 0 0 0 0 0 0 0 0 0 0 0 0 0 0
0 0 0 0 0 0 0 0 0 0 0 0 0 0 0 0 0 0 0 0 0 0 0 0 0 0 0 0 0 0 0 0 0 0 0 0 0 0 0 0 0 0 0 0
0 0 0 0 0 0 0 0 0 0 0 0 0 0 0 0 0 0 0 0 0 0 0 0 0 0 0 0 0 0 0 0 0 0 0 0 0 0 0 0 0 0 0 0
-4 0 0 -1 -2 -2 0 0 0 0 0 0 0 0 0 0 0 0 0 0 0 0 0 0 0 0 0 0 0 0 0 0 0 0 0 0 0 0 0 0 0 0 0 0
0 0 0 0 0 0 0 0 0 0 0 0 0 0 0 0 0 0 0 0 0 0 0 0 0 0 0 0 0 0 0 0 0 0 0 0 0 0 0 0 0 0 0 0
0 0 0 -1 -2 -1 0 0 0 0 0 0 0 0 0 0 0 0 0 0 0 0 0 0 0 0 0 0 0 0 0 0 0 0 0 0 0 0 0 0 0 0 0 0
-5 -21 -3 -1 -3 -15 0 0 0 0 0 0 0 0 0 0 0 0 0 0 0 0 0 0 0 0 0 0 0 0 0 0 0 0 0 0 0 0 0 0 0 0 0 0
-3 -12 -8 -11 -13 0 0 0 0 0 0 0 0 0 0 0 0 0 0 0 0 0 0 0 0 0 0 0 0 0 0 0 0 0 0 0 0 0 0 0 0 0 0 0
0 -15 -9 -5 0 0 0 0 0 0 0 0 0 0 0 0 0 0 0 0 0 0 0 0 0 0 0 0 0 0 0 0 0 0 0 0 0 0 0 0 0 0 0 0
0 0 0 0 0 0 0 0 0 0 0 0 0 0 0 0 0 0 0 0 0 0 0 0 0 0 0 0 0 0 0 0 0 0 0 0 0 0 0 0 0 0 0 0
0 0 0 0 0 0 0 0 0 0 0 0 0 0 0 0 0 0 0 0 0 0 0 0 0 0 0 0 0 0 0 0 0 0 0 0 0 0 0 0 0 0 0 0
Wind_Speed
23 24 23 21 20 23 22 25 28 25 25 28 31 39 33 30 22 14 11 11 11 13 13 13 13 12 13 13 13 13 12 10 9 8 8 9 8 9 9 8 8 7 5 4
27 31 30 25 24 25 26 29 31 31 27 30 38 47 44 30 24 16 14 14 15 14 15 15 15 15 15 15 15 14 13 12 11 11 11 12 9 11 9 8 8 8 6 5
29 27 23 25 26 26 28 28 30 33 31 32 39 49 42 34 24 21 16 16 17 18 18 18 17 18 18 17 16 16 15 13 12 11 11 11 11 11 11 10 9 9 7 5
34 31 29 27 29 24 35 27 29 31 33 40 29 51 43 37 33 25 20 19 18 20 22 21 20 20 20 20 19 17 16 14 13 12 12 12 13 12 13 10 8 8 7 5
37 31 30 33 33 24 33 25 26 28 31 38 35 40 45 35 36 31 24 21 20 23 23 22 20 20 19 20 19 18 16 16 15 14 14 14 14 15 11 9 9 8 8 6
39 30 30 31 28 25 20 25 26 28 30 45 37 34 57 34 31 32 26 22 24 26 27 25 21 17 17 18 18 18 18 17 16 15 15 15 14 13 12 12 11 9 8 7
39 41 33 29 31 26 25 27 37 39 37 46 33 34 30 34 33 23 26 26 29 25 22 22 19 16 15 15 16 17 18 18 17 16 16 16 15 14 14 13 12 11 10 10
43 50 36 34 35 33 30 30 36 43 43 46 32 43 43 29 28 25 27 20 23 24 22 20 20 18 17 16 15 17 18 18 18 17 16 15 14 15 14 14 14 13 13 12
38 45 33 31 30 27 33 38 34 39 39 48 48 50 48 35 33 31 24 27 30 25 24 20 17 15 16 15 15 16 17 17 17 17 16 16 15 15 15 15 14 14 13 12
39 50 35 32 28 29 32 22 34 33 41 47 50 49 44 37 35 30 30 23 22 24 23 20 19 17 15 14 13 13 15 16 16 16 16 16 15 15 15 16 16 15 14 14
38 41 41 33 38 36 33 37 33 32 35 43 53 55 32 29 26 27 25 19 20 19 19 19 21 20 19 17 14 13 14 15 16 16 16 17 16 16 16 17 17 17 16 15
34 37 54 51 37 35 37 41 38 42 42 40 45 68 28 30 31 24 21 25 23 18 19 22 23 21 18 16 16 14 14 15 16 16 17 17 17 17 18 18 18 18 18 17
25 33 48 48 42 39 44 42 38 38 38 48 47 62 32 28 28 25 26 26 22 24 25 26 27 24 21 18 15 13 15 16 16 16 18 18 18 18 19 19 19 19 19 18
25 34 39 47 40 32 39 41 38 38 44 47 46 45 44 36 34 30 30 30 31 31 31 31 30 25 21 19 17 16 16 16 17 18 19 20 20 20 20 20 20 20 20 19
32 44 39 45 42 38 38 37 33 37 41 43 44 47 52 44 51 50 43 40 41 39 37 35 32 27 24 22 21 19 19 18 18 19 20 21 21 20 20 21 21 21 21 20
35 45 41 53 49 45 49 44 43 40 41 41 46 55 53 45 42 42 42 43 45 44 41 39 34 30 28 25 23 21 20 19 19 20 21 21 21 21 21 21 22 22 22 21
39 42 44 55 48 44 51 54 51 47 46 43 52 47 52 55 50 48 48 46 47 46 44 42 37 34 31 27 24 22 21 19 19 20 20 20 20 21 22 22 23 23 23 22
45 45 45 49 43 57 50 44 44 45 46 42 47 57 60 54 52 48 44 47 48 46 44 42 39 38 34 30 25 23 20 19 20 20 20 20 21 22 22 22 24 23 23 23
45 46 47 56 60 54 51 47 41 41 53 42 43 51 58 51 48 61 45 42 44 44 40 39 37 35 32 28 24 21 20 20 21 21 21 21 21 22 22 24 23 23 23 23
49 47 49 37 54 57 53 51 39 34 55 51 39 45 50 44 48 58 39 35 35 34 34 35 34 31 27 24 21 21 21 21 21 21 21 20 20 21 21 22 21 21 22 23
50 52 62 64 60 54 48 38 26 43 47 38 34 38 44 43 39 38 37 37 38 39 39 36 31 30 26 21 18 20 19 20 19 17 17 17 18 19 19 18 19 20 22 22
44 41 48 50 57 60 31 30 43 39 34 36 35 36 40 38 39 38 39 39 38 37 34 30 28 26 22 18 16 18 18 16 14 13 13 14 15 16 16 17 19 19 20 22
48 42 43 43 41 30 26 31 30 28 33 34 34 32 35 38 39 39 39 38 36 33 30 26 23 22 20 17 15 15 13 10 9 9 11 12 13 13 14 16 16 17 18 21
41 42 42 41 39 43 40 36 34 31 33 32 30 29 27 30 32 34 34 33 32 30 28 24 21 19 16 12 10 9 8 9 9 9 9 8 8 9 11 12 13 16 17 19
49 42 46 50 48 45 45 44 40 37 35 34 31 31 31 29 28 27 26 26 25 23 20 17 14 12 12 11 11 10 9 8 10 10 9 9 9 10 11 12 14 17 19 19
41 43 47 51 41 41 44 38 35 35 32 32 34 33 31 28 28 27 24 21 20 19 16 14 12 11 12 11 11 10 9 8 9 10 9 10 10 10 12 13 16 17 18 18
Wind_Direction
275 273 273 279 282 289 296 295 295 302 305 299 295 286 296 301 310 303 282 280 270 259 261 275 268 266 272 274 271 271 271 271 274 280 286 292 294 299 299 296 294 287 286 290
272 270 274 281 282 284 289 291 293 298 301 298 292 279 283 300 302 291 274 278 276 276 276 275 266 260 260 263 264 264 263 259 264 270 281 288 290 297 291 290 289 289 284 283
268 276 284 275 279 282 286 288 294 295 301 299 297 286 289 299 299 298 286 286 287 272 266 272 266 257 260 256 257 258 256 254 257 263 271 284 293 294 286 277 275 280 282 270
272 272 275 278 279 282 283 291 293 295 298 293 302 287 290 297 299 303 302 300 282 282 285 284 273 262 257 255 259 257 251 247 253 251 255 253 266 266 274 262 261 269 273 258
269 273 272 272 276 280 285 295 296 298 296 297 292 294 294 300 298 304 307 304 299 297 292 286 276 268 262 260 253 253 250 248 249 246 251 257 264 271 262 252 250 257 264 251
269 276 274 276 281 280 286 294 298 299 298 288 290 292 278 299 301 307 316 315 311 308 300 295 293 287 276 267 256 249 245 247 244 243 246 250 250 251 250 246 243 246 247 238
269 267 273 275 276 281 279 285 286 288 286 286 297 290 263 302 305 305 314 314 308 313 310 302 296 287 284 268 255 250 245 243 241 242 246 250 250 243 233 228 231 231 233 233
265 267 265 266 265 273 271 272 277 283 285 288 295 288 292 306 310 310 311 315 310 309 313 312 302 295 289 277 260 249 243 244 242 243 245 249 246 244 243 233 234 232 226 220
269 268 276 274 273 263 271 268 278 280 286 287 286 287 293 297 302 304 308 312 304 303 309 316 316 307 299 286 266 250 242 242 241 242 244 245 244 240 240 238 233 237 227 217
269 270 274 277 274 271 266 274 275 276 280 282 284 286 290 301 304 303 301 311 310 303 304 316 318 316 310 301 283 260 244 239 236 239 242 245 244 242 241 236 230 228 225 218
262 265 270 272 265 263 267 266 274 278 277 280 283 282 299 301 301 302 302 315 321 314 310 318 322 318 311 306 293 270 249 243 241 240 243 247 247 242 239 235 232 226 222 218
262 270 264 265 275 273 269 268 261 269 274 278 281 269 298 303 298 296 296 309 314 314 314 318 322 319 317 308 292 278 258 246 243 243 243 245 244 241 238 236 233 227 223 225
267 268 267 269 271 271 267 265 266 268 277 272 273 268 298 295 292 295 295 302 304 309 309 314 315 311 310 305 296 280 263 255 251 247 246 248 244 239 238 237 233 227 227 230
265 266 265 264 272 275 269 267 263 262 267 265 270 254 279 287 284 289 294 296 300 305 303 306 307 305 306 302 294 283 271 261 253 250 247 246 244 242 241 238 231 226 228 231
258 265 263 266 270 272 273 272 268 260 260 269 267 276 247 277 277 283 289 290 294 297 299 299 300 299 300 297 290 284 277 266 258 253 250 246 246 245 242 237 231 230 232 237
260 266 267 267 268 269 270 271 269 265 268 271 273 277 278 285 287 286 287 289 290 293 294 294 294 294 294 291 286 278 272 265 258 254 252 252 247 244 241 237 233 233 236 240
262 262 265 266 269 269 267 265 267 270 269 269 273 265 282 282 285 285 287 288 288 291 292 292 291 290 290 287 284 274 269 267 258 256 255 251 246 243 241 239 237 238 239 242
259 262 264 266 270 263 268 273 271 270 270 270 274 276 278 284 287 288 288 289 290 291 291 292 291 291 289 288 283 280 272 265 259 257 254 250 247 246 245 242 241 243 245 245
259 259 263 263 264 269 270 270 271 272 275 275 273 279 281 287 290 281 292 292 291 293 293 294 295 294 293 288 284 279 273 271 267 259 255 250 247 245 244 243 244 246 250 255
254 260 261 263 261 263 268 272 277 281 277 279 277 280 284 288 284 284 299 300 299 300 301 301 301 299 295 291 284 277 275 273 269 266 261 255 249 246 245 247 248 253 256 260
254 254 253 260 265 271 276 278 278 266 278 291 288 284 285 285 287 294 299 299 301 299 299 301 300 300 298 295 288 282 280 277 278 274 267 259 254 252 252 251 256 259 265 265
262 261 259 259 262 265 272 274 269 280 290 290 294 295 290 293 294 295 297 298 300 300 302 303 302 301 301 297 292 290 286 286 282 277 271 265 260 261 258 257 267 267 263 267
261 261 266 263 269 278 276 284 286 287 287 290 292 295 294 293 294 296 296 298 300 303 305 307 304 304 304 300 297 294 294 295 292 287 283 278 273 267 263 264 266 268 268 273
264 264 267 271 272 277 281 283 285 284 288 295 296 295 299 297 299 299 300 300 300 302 302 304 305 303 303 310 312 310 307 305 299 296 292 286 278 275 272 274 272 274 275 277
264 265 268 271 274 278 279 278 281 282 286 288 292 293 296 300 300 302 303 305 307 307 308 307 307 309 311 312 312 310 310 310 307 305 302 297 295 287 285 285 281 281 284 283
266 266 267 270 277 278 277 285 287 283 282 285 289 291 294 296 296 300 305 309 308 307 306 304 307 310 313 317 319 323 322 320 314 310 306 303 301 300 296 294 298 301 296 296